Mobridge, SD

7:28 PM CST on November 17, 2019 (GMT -0600)
Mobridge Municipal

Weather History for KMBG - October, 2019

Change the Weather History Date:

Sunday, October 20, 2019

  Actual Average Record
Temperature  
Mean Temperature 43 °F 46 °F  
Max Temperature 52 °F 58 °F 87 °F (1914)
Min Temperature 34 °F 33 °F 14 °F (1916)
Degree Days  
Heating Degree Days 22    
Month to date heating degree days 401  
Since 1 July heating degree days 528  
Cooling Degree Days 0    
Month to date cooling degree days 0  
Year to date cooling degree days 648  
Moisture  
Dew Point 39 °F    
Average Humidity 70    
Maximum Humidity 86    
Minimum Humidity 53    
Precipitation  
Precipitation 1.08 in 0.05 in 1.08 in (2019)
Month to date precipitation 2.41 1.05  
Year to date precipitation 26.56 16.50  
Snow  
Snow 0.00 in - 3.00 in (1936)
Month to date snowfall 5.6  
Since 1 July snowfall 5.6  
Snow Depth 0.00 in    
Sea Level Pressure  
Sea Level Pressure 29.60 in    
Wind  
Wind Speed 15 mph (NE)    
Max Wind Speed 29 mph    
Max Gust Speed 44 mph    
Visibility 7 miles    
Events Rain    
T = Trace of Precipitation, MM = Missing Value Source: NWS Daily Summary

Daily Weather History Graph

Daily Weather History Graph

Search for Another Location

Airport or City:

Astronomy

Oct. 20, 2019 Rise Set
Actual Time 8:04 AM CDT 6:47 PM CDT
Civil Twilight 7:34 AM CDT 7:17 PM CDT
Nautical Twilight 6:59 AM CDT 7:52 PM CDT
Astronomical Twilight 6:25 AM CDT 8:26 PM CDT
Moon 11:46 PM CDT (10/20) 2:46 PM CDT (10/20)
Length of Visible Light 11h 43m
Length of Day
10h 43m
Waning Gibbous, 59% of the Moon is Illuminated
Oct 20
Waning Gibbous
Oct 21
Last Quarter
Oct 27
New
Nov 4
First Quarter
Nov 12
Full

Hourly Weather History & Observations

Time (CDT) Temp. Windchill Dew Point Humidity Pressure Visibility Wind Dir Wind Speed Gust Speed Precip Events Conditions
12:52 AM 41.0 °F 37.1 °F 32.0 °F 70% 29.65 in 10.0 mi East 5.8 mph - N/A   Clear
1:52 AM 37.9 °F - 28.0 °F 68% 29.64 in 10.0 mi Calm Calm - N/A   Clear
2:52 AM 35.1 °F 31.0 °F 27.0 °F 72% 29.66 in 10.0 mi East 4.6 mph - N/A   Clear
3:52 AM 41.0 °F 37.1 °F 28.0 °F 60% 29.64 in 10.0 mi East 5.8 mph - N/A   Clear
4:52 AM 43.0 °F 38.8 °F 28.9 °F 58% 29.63 in 10.0 mi East 6.9 mph - N/A   Clear
5:52 AM 44.1 °F 37.7 °F 28.9 °F 55% 29.62 in 10.0 mi East 12.7 mph - N/A   Clear
6:52 AM 46.0 °F 41.9 °F 30.0 °F 54% 29.64 in 10.0 mi East 8.1 mph - N/A   Overcast
7:52 AM 46.9 °F - 32.0 °F 56% 29.65 in 10.0 mi East 8.1 mph - N/A   Overcast
8:52 AM 46.9 °F - 34.0 °F 61% 29.67 in 10.0 mi ESE 10.4 mph - N/A   Overcast
9:52 AM 50.0 °F - 35.1 °F 57% 29.63 in 10.0 mi ENE 16.1 mph - 0.00 in   Mostly Cloudy
10:52 AM 50.0 °F - 37.0 °F 61% 29.67 in 10.0 mi ESE 9.2 mph - 0.00 in Rain Light Rain
11:52 AM 46.9 °F - 39.0 °F 74% 29.65 in 6.0 mi East 11.5 mph - 0.02 in Rain Rain
12:52 PM 46.0 °F 37.6 °F 41.0 °F 83% 29.61 in 3.0 mi ENE 24.2 mph 32.2 mph 0.11 in Rain Rain
1:52 PM 46.0 °F 38.8 °F 41.0 °F 83% 29.60 in 10.0 mi ENE 18.4 mph 26.5 mph 0.03 in   Overcast
2:52 PM 46.0 °F 38.3 °F 41.0 °F 83% 29.58 in 2.5 mi ENE 20.7 mph 29.9 mph 0.01 in Rain Rain
3:01 PM 46.0 °F 39.0 °F 41.0 °F 83% 29.55 in 4.0 mi ENE 17.3 mph 27.6 mph 0.01 in Rain Light Rain
3:52 PM 46.9 °F - 42.1 °F 83% 29.58 in 4.0 mi NE 18.4 mph - 0.07 in Rain Light Rain
4:16 PM 46.9 °F - 43.0 °F 86% 29.57 in 2.0 mi NE 13.8 mph - 0.04 in Rain Rain
4:52 PM 46.9 °F - 43.0 °F 86% 29.58 in 2.0 mi NE 18.4 mph 28.8 mph 0.17 in Rain Rain
5:20 PM 46.0 °F 39.0 °F 42.1 °F 86% 29.56 in 3.0 mi NNE 17.3 mph 26.5 mph 0.09 in Rain Rain
5:52 PM 46.0 °F 40.2 °F 43.0 °F 89% 29.58 in 2.5 mi NNE 12.7 mph - 0.16 in Rain Rain
5:59 PM 46.0 °F 39.6 °F 43.0 °F 89% 29.56 in 4.0 mi North 15.0 mph - 0.02 in Rain Rain
6:30 PM 46.9 °F - 43.0 °F 86% 29.55 in 4.0 mi NE 23.0 mph 33.4 mph 0.06 in Rain Light Rain
6:40 PM 46.9 °F - 43.0 °F 86% 29.55 in 7.0 mi ENE 18.4 mph 31.1 mph 0.08 in Rain Light Rain
6:52 PM 46.9 °F - 43.0 °F 86% 29.58 in 9.0 mi East 15.0 mph 33.4 mph 0.08 in Rain Light Rain
7:27 PM 46.9 °F - 42.1 °F 83% 29.56 in 7.0 mi NE 20.7 mph 36.8 mph 0.03 in Rain Light Rain
7:52 PM 46.9 °F - 43.0 °F 86% 29.58 in 5.0 mi NE 20.7 mph 31.1 mph 0.09 in Rain Rain
8:52 PM 46.9 °F - 43.0 °F 86% 29.60 in 6.0 mi NE 20.7 mph 29.9 mph 0.09 in Rain Light Rain
9:52 PM 46.9 °F - 42.1 °F 83% 29.60 in 9.0 mi NNE 17.3 mph 25.3 mph 0.04 in Rain Light Rain
10:18 PM 46.0 °F 39.6 °F 42.1 °F 86% 29.59 in 8.0 mi NNE 15.0 mph 23.0 mph 0.02 in Rain Light Rain
10:52 PM 46.0 °F 39.3 °F 42.1 °F 86% 29.60 in 8.0 mi NNE 16.1 mph 24.2 mph 0.04 in Rain Light Rain
11:01 PM 46.0 °F 38.8 °F 42.1 °F 86% 29.58 in 6.0 mi NNE 18.4 mph 26.5 mph 0.01 in Rain Rain
11:13 PM 46.0 °F 39.0 °F 42.1 °F 86% 29.58 in 9.0 mi NNE 17.3 mph - 0.02 in Rain Light Rain
11:52 PM 46.0 °F 38.3 °F 42.1 °F 86% 29.59 in 6.0 mi North 20.7 mph 28.8 mph 0.06 in Rain Rain
11:58 PM 46.0 °F 38.3 °F 42.1 °F 86% 29.57 in 6.0 mi NNE 20.7 mph 29.9 mph 0.01 in Rain Rain